Midland, MI

5:12 PM EST on December 08, 2016 (GMT -0500)
Barstow

Weather History for KIKW - January, 2013

Change the Weather History Date:

Thursday, January 10, 2013

  Actual Average (KMBS) Record (KMBS)
Temperature  
Mean Temperature 32 °F -  
Max Temperature 43 °F 26 °F 44 °F (2012)
Min Temperature 21 °F 14 °F -2 °F (1999)
Degree Days  
Heating Degree Days 33    
Moisture  
Dew Point 26 °F    
Average Humidity 80    
Maximum Humidity 96    
Minimum Humidity 54    
Precipitation  
Precipitation 0.03 in - - ()
Sea Level Pressure  
Sea Level Pressure 30.42 in    
Wind  
Wind Speed 2 mph (ESE)    
Max Wind Speed 9 mph    
Max Gust Speed -    
Visibility 10 miles    
Events Rain    
Averages and records for this station are not official NWS values.
T = Trace of Precipitation, MM = Missing Value Source: NWS Daily Summary

Daily Weather History Graph

Daily Weather History Graph

Search for Another Location

Airport or City:

Trip Planner

Search our weather history database for the weather conditions in past years. The results will help you decide how hot, cold, wet, or windy it might be!

Date:

Astronomy

Jan. 10, 2013 Rise Set
Actual Time 8:09 AM EST 5:20 PM EST
Civil Twilight 7:37 AM EST 5:52 PM EST
Nautical Twilight 7:01 AM EST 6:28 PM EST
Astronomical Twilight 6:27 AM EST 7:02 PM EST
Moon 6:48 AM EST (1/10) 4:27 PM EST (1/10)
Length of Visible Light 10h 15m
Length of Day
9h 10m
Waning Crescent, 2% of the Moon is Illuminated
Jan 10
Waning Crescent
Jan 11
New
Jan 18
First Quarter
Jan 26
Full
Feb 3
Last Quarter

Hourly Weather History & Observations

Time (EST) Temp. Windchill Dew Point Humidity Pressure Visibility Wind Dir Wind Speed Gust Speed Precip Events Conditions
12:14 AM 27.1 °F - 23.5 °F 86% 30.39 in 10.0 mi Calm Calm - N/A   Clear
12:34 AM 26.4 °F - 24.6 °F 93% 30.40 in 10.0 mi Calm Calm - N/A   Clear
12:54 AM 25.5 °F - 22.8 °F 89% 30.40 in 10.0 mi Calm Calm - N/A   Clear
1:34 AM 25.3 °F - 23.7 °F 94% 30.42 in 10.0 mi Calm Calm - N/A   Clear
1:54 AM 24.8 °F - 23.0 °F 93% 30.45 in 10.0 mi Calm Calm - N/A   Clear
2:14 AM 24.3 °F - 22.1 °F 91% 30.47 in 10.0 mi Calm Calm - N/A   Clear
2:34 AM 25.0 °F - 22.8 °F 91% 30.48 in 10.0 mi Calm Calm - N/A   Clear
2:54 AM 26.8 °F - 24.6 °F 92% 30.50 in 10.0 mi Calm Calm - N/A   Clear
3:14 AM 24.8 °F - 22.6 °F 91% 30.50 in 10.0 mi Calm Calm - N/A   Clear
3:34 AM 23.7 °F - 22.1 °F 94% 30.51 in 10.0 mi Calm Calm - N/A   Clear
3:54 AM 24.8 °F - 23.2 °F 94% 30.51 in 10.0 mi Calm Calm - N/A   Clear
4:14 AM 24.3 °F - 23.0 °F 95% 30.51 in 10.0 mi Calm Calm - N/A   Clear
4:34 AM 21.9 °F - 20.1 °F 93% 30.50 in 10.0 mi Calm Calm - N/A   Clear
5:14 AM 23.0 °F - 22.1 °F 96% 30.49 in 10.0 mi Calm Calm - N/A   Clear
5:34 AM 23.0 °F - 21.9 °F 96% 30.50 in 10.0 mi Calm Calm - N/A   Clear
5:54 AM 22.5 °F - 21.6 °F 96% 30.50 in 10.0 mi Calm Calm - N/A   Clear
6:14 AM 22.8 °F - 21.9 °F 96% 30.50 in 10.0 mi Calm Calm - N/A   Clear
6:34 AM 22.1 °F - 21.2 °F 96% 30.52 in 10.0 mi Calm Calm - N/A   Clear
6:54 AM 22.1 °F - 21.2 °F 96% 30.52 in 10.0 mi Calm Calm - N/A   Clear
7:14 AM 21.9 °F - 21.0 °F 96% 30.53 in 10.0 mi Calm Calm - N/A   Clear
7:34 AM 21.7 °F - 20.7 °F 96% 30.54 in 10.0 mi Calm Calm - N/A   Clear
7:54 AM 22.1 °F - 21.2 °F 96% 30.54 in 10.0 mi Calm Calm - N/A   Clear
8:14 AM 21.2 °F - 20.3 °F 96% 30.54 in 10.0 mi Calm Calm - N/A   Clear
8:20 AM 21.2 °F - 20.3 °F 96% 30.54 in 10.0 mi Calm Calm - N/A   Clear
8:54 AM 21.6 °F - 20.7 °F 96% 30.54 in 10.0 mi Calm Calm - N/A   Clear
9:14 AM 23.0 °F - 22.1 °F 96% 30.53 in 10.0 mi Calm Calm - N/A   Clear
9:34 AM 25.7 °F - 24.8 °F 96% 30.53 in 10.0 mi Calm Calm - N/A   Clear
9:54 AM 28.6 °F - 26.8 °F 93% 30.53 in 10.0 mi Calm Calm - N/A   Clear
10:14 AM 31.8 °F - 28.8 °F 88% 30.53 in 10.0 mi Calm Calm - N/A   Clear
10:54 AM 35.8 °F - 28.2 °F 74% 30.53 in 10.0 mi Calm Calm - N/A   Clear
11:14 AM 37.6 °F 33.1 °F 29.3 °F 72% 30.52 in 10.0 mi SE 5.8 mph - N/A   Clear
11:34 AM 38.5 °F 34.1 °F 28.8 °F 68% 30.52 in 10.0 mi South 5.8 mph - N/A   Clear
11:54 AM 39.2 °F 35.0 °F 28.6 °F 66% 30.51 in 10.0 mi SSE 5.8 mph - N/A   Clear
12:14 PM 39.7 °F 35.6 °F 28.4 °F 64% 30.50 in 10.0 mi SSE 5.8 mph - N/A   Clear
12:34 PM 40.6 °F 36.7 °F 28.4 °F 62% 30.48 in 10.0 mi SSE 5.8 mph - N/A   Clear
12:55 PM 41.2 °F 37.3 °F 28.2 °F 60% 30.47 in 10.0 mi SE 5.8 mph - N/A   Clear
1:14 PM 42.3 °F 40.5 °F 28.0 °F 57% 30.46 in 10.0 mi SSE 3.5 mph - N/A   Clear
1:34 PM 43.3 °F 39.2 °F 27.9 °F 54% 30.45 in 10.0 mi ESE 6.9 mph - N/A   Clear
1:54 PM 43.5 °F 40.1 °F 27.9 °F 54% 30.43 in 10.0 mi SE 5.8 mph - N/A   Clear
2:34 PM 42.3 °F 37.9 °F 28.0 °F 57% 30.42 in 10.0 mi SE 6.9 mph - N/A   Clear
2:54 PM 43.7 °F 41.1 °F 28.4 °F 55% 30.41 in 10.0 mi SSE 4.6 mph - N/A   Clear
3:14 PM 43.9 °F 41.3 °F 28.4 °F 55% 30.41 in 10.0 mi SSE 4.6 mph - N/A   Clear
3:35 PM 43.0 °F 39.5 °F 27.9 °F 55% 30.40 in 10.0 mi SE 5.8 mph - N/A   Clear
3:54 PM 42.6 °F 38.4 °F 27.5 °F 55% 30.39 in 10.0 mi ESE 6.9 mph - N/A   Clear
4:14 PM 41.9 °F 39.0 °F 30.2 °F 63% 30.38 in 10.0 mi East 4.6 mph - N/A   Clear
4:34 PM 41.0 °F 38.0 °F 30.2 °F 65% 30.38 in 10.0 mi East 4.6 mph - N/A   Clear
4:54 PM 40.3 °F 36.3 °F 30.4 °F 68% 30.38 in 10.0 mi East 5.8 mph - N/A   Clear
5:15 PM 39.9 °F 35.1 °F 30.0 °F 68% 30.37 in 10.0 mi ESE 6.9 mph - N/A   Clear
5:34 PM 39.4 °F 33.8 °F 28.8 °F 66% 30.37 in 10.0 mi East 8.1 mph - N/A   Clear
5:54 PM 38.5 °F 35.0 °F 28.8 °F 68% 30.36 in 10.0 mi ESE 4.6 mph - N/A   Clear
6:15 PM 38.5 °F 34.1 °F 28.6 °F 68% 30.36 in 10.0 mi ESE 5.8 mph - N/A   Clear
6:34 PM 38.5 °F 34.1 °F 28.8 °F 68% 30.34 in 10.0 mi East 5.8 mph - N/A   Clear
6:54 PM 38.5 °F 33.4 °F 28.6 °F 68% 30.34 in 10.0 mi East 6.9 mph - N/A   Clear
7:15 PM 36.9 °F 31.4 °F 28.8 °F 72% 30.32 in 10.0 mi East 6.9 mph - N/A   Clear
7:34 PM 36.7 °F 30.5 °F 28.8 °F 73% 30.32 in 10.0 mi East 8.1 mph - N/A   Clear
7:55 PM 36.5 °F 30.3 °F 29.1 °F 75% 30.32 in 10.0 mi ESE 8.1 mph - N/A   Clear
8:14 PM 36.5 °F 29.7 °F 28.9 °F 74% 30.30 in 10.0 mi ESE 9.2 mph - N/A   Clear
8:34 PM 36.5 °F 30.3 °F 28.8 °F 74% 30.29 in 10.0 mi ESE 8.1 mph - N/A   Clear
8:55 PM 36.0 °F 29.6 °F 28.9 °F 76% 30.28 in 10.0 mi ESE 8.1 mph - N/A   Clear
9:14 PM 35.8 °F 30.1 °F 28.9 °F 76% 30.27 in 10.0 mi ESE 6.9 mph - N/A   Clear
9:54 PM 35.8 °F 30.9 °F 29.1 °F 77% 30.25 in 10.0 mi East 5.8 mph - N/A   Scattered Clouds
10:14 PM 35.6 °F 29.9 °F 29.7 °F 79% 30.24 in 10.0 mi East 6.9 mph - N/A Rain Light Rain
10:35 PM 35.4 °F 29.7 °F 30.0 °F 81% 30.22 in 10.0 mi East 6.9 mph - N/A   Drizzle
10:54 PM 34.9 °F 29.0 °F 31.1 °F 86% 30.20 in 7.0 mi East 6.9 mph - N/A   Overcast
11:14 PM 34.9 °F 29.9 °F 31.6 °F 88% 30.19 in 7.0 mi East 5.8 mph - 0.01 in   Overcast
11:35 PM 34.7 °F 28.1 °F 32.5 °F 92% 30.16 in 4.0 mi East 8.1 mph - 0.02 in   Overcast
11:54 PM 34.9 °F 29.9 °F 32.9 °F 92% 30.16 in 5.0 mi East 5.8 mph - 0.03 in   Overcast